Location: Newark
(35.9031°N, 139.7175°E)
Time: 08:02:48
(UTC+00:00)

Transit 2A - Visible Passes

Search period start: 26 May 2020 00:00
Search period end: 05 June 2020 00:00
Orbit: 594 x 965 km, 66.7° (Epoch: 25 May)

Date Brightness Start Highest point End Pass type
(mag) Time Alt. Az. Time Alt. Az. Time Alt. Az.
26 May 7.2 13:31:12 10° NNW 13:37:03 40° ENE 13:37:23 40° ENE visible
26 May 7.9 15:14:39 10° NW 15:17:51 25° WNW 15:17:51 25° WNW visible
27 May 7.7 12:57:21 10° N 13:02:44 29° NE 13:03:57 28° ENE visible
27 May 7.4 14:40:10 10° NW 14:44:25 38° WNW 14:44:25 38° WNW visible
28 May 8.1 12:23:39 10° N 12:28:21 22° NE 12:30:33 18° ENE visible
28 May 6.8 14:05:51 10° NNW 14:11:01 58° WNW 14:11:01 58° WNW visible
29 May 8.5 11:50:11 10° N 11:53:53 16° NE 11:57:12 11° E visible
29 May 6.4 13:31:39 10° NNW 13:37:40 81° N 13:37:40 81° N visible
29 May 8.7 15:17:28 10° WNW 15:18:09 11° W 15:18:09 11° W visible
30 May 8.6 11:17:18 10° NNE 11:19:21 12° NE 11:21:25 10° ENE visible
30 May 6.6 12:57:34 10° NNW 13:03:48 61° ENE 13:04:22 59° E visible
30 May 8.3 14:42:02 10° WNW 14:44:50 19° W 14:44:50 19° W visible
31 May 7.1 12:23:36 10° NNW 12:29:33 43° ENE 12:31:06 37° E visible
31 May 7.7 14:07:13 10° NW 14:11:35 29° W 14:11:35 29° W visible
01 Jun 7.6 11:49:43 10° N 11:55:15 32° NE 11:57:52 24° E visible
01 Jun 7.1 13:32:41 10° NW 13:38:21 44° WSW 13:38:21 44° WSW visible
02 Jun 8.0 11:15:59 10° N 11:20:52 23° NE 11:24:41 14° E visible
02 Jun 6.5 12:58:20 10° NW 13:04:34 63° WSW 13:05:10 60° SW visible
03 Jun 8.3 10:42:27 10° N 10:46:25 17° NE 10:50:26 10° E visible
03 Jun 6.4 12:24:07 10° NNW 12:30:28 89° WSW 12:32:02 54° SSE visible
03 Jun 8.6 14:10:23 10° WNW 14:12:31 12° W 14:12:31 12° W visible
04 Jun 6.6 11:50:01 10° NNW 11:56:17 66° ENE 11:58:57 36° SE visible
04 Jun 8.2 13:34:42 10° WNW 13:38:59 19° WSW 13:39:26 19° WSW visible
